When you browse on this site, cookies collect data to enhance your experience and personalize the content and advertising you see.
Visit our Privacy Policy to learn more. By continuing to use the site, you agree to this use of cookies and data.
  • In Czech Republic
  • List of Countries
  • For 7 days
  • Water Temperature
  • Satellite Maps
  • Weather Map
  • Weather Widgets
  • user-avatar
    Login

    Hourly Weather Saint John's

    Today, 26 June, Wednesday

    Time Temperature Precipitation Wind Pressure Humidity
    00:00 +7°C° 0 mm 2 mps 759 mmHg 92%
    01:00 +8°C° 0 mm 1 mps 759 mmHg 93%
    02:00 +8°C° 0 mm 1 mps 760 mmHg 93%
    03:00 +8°C° 0 mm 1 mps 760 mmHg 91%
    04:00 +9°C° 0 mm 1 mps 761 mmHg 89%
    05:00 +9°C° 0 mm 1 mps 761 mmHg 87%
    06:00 +11°C° 0 mm 1 mps 761 mmHg 80%
    07:00 +14°C° 0 mm 1 mps 762 mmHg 74%
    08:00 +16°C° 0 mm 1 mps 762 mmHg 67%
    09:00 +16°C° 0 mm 1 mps 762 mmHg 65%
    10:00 +16°C° 0 mm 2 mps 763 mmHg 63%
    11:00 +17°C° 0 mm 2 mps 763 mmHg 61%
    12:00 +17°C° 0 mm 2 mps 763 mmHg 61%
    13:00 +17°C° 0 mm 2 mps 763 mmHg 61%
    14:00 +17°C° 0 mm 2 mps 763 mmHg 61%
    15:00 +16°C° 0 mm 2 mps 764 mmHg 63%
    16:00 +15°C° 0 mm 2 mps 764 mmHg 65%
    17:00 +15°C° 0 mm 1 mps 764 mmHg 67%
    18:00 +13°C° 0 mm 1 mps 764 mmHg 72%
    19:00 +10°C° 0 mm 2 mps 764 mmHg 77%
    20:00 +8°C° 0 mm 2 mps 764 mmHg 82%
    21:00 +8°C° 0 mm 2 mps 764 mmHg 81%
    22:00 +9°C° 0 mm 1 mps 765 mmHg 80%
    23:00 +9°C° 0 mm 1 mps 765 mmHg 78%

    Tomorrow, 27 June, Thursday

    Time Temperature Precipitation Wind Pressure Humidity
    00:00 +8°C° 0 mm 1 mps 765 mmHg 79%
    01:00 +7°C° 0 mm 0 mps 764 mmHg 80%
    02:00 +7°C° 0 mm 0 mps 764 mmHg 80%
    03:00 +8°C° 0 mm 0 mps 764 mmHg 78%
    04:00 +8°C° 0 mm 0 mps 765 mmHg 76%
    05:00 +10°C° 0 mm 1 mps 765 mmHg 75%
    06:00 +12°C° 0 mm 1 mps 765 mmHg 69%
    07:00 +14°C° 0 mm 2 mps 765 mmHg 64%
    08:00 +16°C° 0 mm 2 mps 765 mmHg 58%
    09:00 +16°C° 0 mm 2 mps 765 mmHg 59%
    10:00 +17°C° 0 mm 3 mps 764 mmHg 61%
    11:00 +18°C° 0 mm 3 mps 764 mmHg 62%
    12:00 +18°C° 0 mm 3 mps 764 mmHg 66%
    13:00 +17°C° 0 mm 3 mps 764 mmHg 70%
    14:00 +17°C° 0 mm 3 mps 763 mmHg 74%
    15:00 +17°C° 0 mm 3 mps 763 mmHg 77%
    16:00 +16°C° 0 mm 3 mps 763 mmHg 81%
    17:00 +16°C° 0 mm 3 mps 763 mmHg 84%
    18:00 +14°C° 0 mm 3 mps 763 mmHg 88%
    19:00 +14°C° 0 mm 2 mps 763 mmHg 93%
    20:00 +12°C° 0 mm 2 mps 763 mmHg 98%
    21:00 +13°C° 0 mm 2 mps 763 mmHg 98%
    22:00 +13°C° 0 mm 1 mps 762 mmHg 98%
    23:00 +13°C° 0 mm 1 mps 762 mmHg 98%

    Day after tomorrow, 28 June, Friday

    Time Temperature Precipitation Wind Pressure Humidity
    00:00 +13°C° 0 mm 1 mps 762 mmHg 98%
    01:00 +13°C° 0 mm 1 mps 761 mmHg 98%
    02:00 +13°C° 0 mm 1 mps 761 mmHg 98%
    03:00 +13°C° 0 mm 2 mps 761 mmHg 98%
    04:00 +13°C° 0 mm 2 mps 761 mmHg 97%
    05:00 +13°C° 0 mm 2 mps 761 mmHg 97%
    06:00 +12°C° 0 mm 3 mps 760 mmHg 95%
    07:00 +12°C° 0 mm 3 mps 760 mmHg 93%
    08:00 +13°C° 0 mm 3 mps 760 mmHg 91%
    09:00 +13°C° 0 mm 3 mps 760 mmHg 89%
    10:00 +13°C° 0 mm 3 mps 760 mmHg 88%
    11:00 +13°C° 0 mm 3 mps 759 mmHg 87%
    12:00 +13°C° 0 mm 3 mps 759 mmHg 86%
    13:00 +14°C° 0 mm 3 mps 759 mmHg 85%
    14:00 +14°C° 0 mm 3 mps 758 mmHg 85%
    15:00 +13°C° 0 mm 3 mps 758 mmHg 87%
    16:00 +13°C° 0 mm 3 mps 758 mmHg 89%
    17:00 +12°C° 0 mm 3 mps 757 mmHg 91%
    18:00 +12°C° 0 mm 3 mps 757 mmHg 93%
    19:00 +11°C° 0 mm 3 mps 757 mmHg 95%
    20:00 +11°C° 0 mm 4 mps 758 mmHg 97%
    21:00 +11°C° 0 mm 4 mps 757 mmHg 97%
    22:00 +11°C° 0 mm 4 mps 757 mmHg 97%
    23:00 +11°C° 0 mm 4 mps 757 mmHg 97%

    29 June, Saturday

    Time Temperature Precipitation Wind Pressure Humidity
    00:00 +11°C° 0 mm 4 mps 756 mmHg 96%
    01:00 +10°C° 0 mm 4 mps 756 mmHg 96%
    02:00 +10°C° 0 mm 4 mps 756 mmHg 96%
    03:00 +10°C° 0 mm 4 mps 756 mmHg 95%
    04:00 +10°C° 0 mm 4 mps 756 mmHg 95%
    05:00 +9°C° 0 mm 5 mps 756 mmHg 94%
    06:00 +9°C° 0 mm 5 mps 756 mmHg 90%
    07:00 +10°C° 0 mm 5 mps 755 mmHg 85%
    08:00 +11°C° 0 mm 6 mps 755 mmHg 80%
    09:00 +13°C° 0 mm 5 mps 755 mmHg 78%
    10:00 +13°C° 0 mm 5 mps 755 mmHg 75%
    11:00 +14°C° 0 mm 4 mps 755 mmHg 72%
    12:00 +14°C° 0 mm 4 mps 755 mmHg 70%
    13:00 +14°C° 0 mm 4 mps 755 mmHg 69%
    14:00 +14°C° 0 mm 4 mps 755 mmHg 67%
    15:00 +14°C° 0 mm 4 mps 755 mmHg 70%
    16:00 +13°C° 0 mm 3 mps 754 mmHg 73%
    17:00 +12°C° 0 mm 3 mps 754 mmHg 75%
    18:00 +11°C° 0 mm 3 mps 754 mmHg 82%
    19:00 +9°C° 0 mm 2 mps 754 mmHg 88%
    20:00 +7°C° 0 mm 2 mps 754 mmHg 95%
    21:00 +7°C° 0 mm 2 mps 754 mmHg 95%
    22:00 +8°C° 0 mm 1 mps 754 mmHg 95%
    23:00 +8°C° 0 mm 1 mps 754 mmHg 95%

    30 June, Sunday

    Time Temperature Precipitation Wind Pressure Humidity
    00:00 +7°C° 0 mm 2 mps 754 mmHg 95%
    01:00 +7°C° 0 mm 2 mps 754 mmHg 96%
    02:00 +7°C° 0 mm 2 mps 754 mmHg 96%
    03:00 +7°C° 0 mm 2 mps 754 mmHg 95%
    04:00 +8°C° 0 mm 2 mps 754 mmHg 94%
    05:00 +8°C° 0 mm 2 mps 753 mmHg 93%
    06:00 +9°C° 0 mm 2 mps 754 mmHg 85%
    07:00 +12°C° 0 mm 2 mps 754 mmHg 78%
    08:00 +13°C° 0 mm 2 mps 754 mmHg 71%
    09:00 +13°C° 0 mm 3 mps 753 mmHg 67%
    10:00 +14°C° 0 mm 3 mps 753 mmHg 64%
    11:00 +16°C° 0 mm 3 mps 753 mmHg 60%
    12:00 +16°C° 0 mm 3 mps 753 mmHg 60%
    13:00 +17°C° 0 mm 2 mps 753 mmHg 59%
    14:00 +17°C° 0 mm 2 mps 753 mmHg 59%
    15:00 +16°C° 0 mm 2 mps 753 mmHg 63%
    16:00 +16°C° 0 mm 2 mps 753 mmHg 68%
    17:00 +15°C° 0 mm 1 mps 753 mmHg 72%
    18:00 +13°C° 0 mm 1 mps 753 mmHg 80%
    19:00 +12°C° 0 mm 1 mps 753 mmHg 88%
    20:00 +10°C° 0 mm 1 mps 753 mmHg 96%
    21:00 +10°C° 0 mm 1 mps 753 mmHg 96%
    22:00 +10°C° 0 mm 1 mps 753 mmHg 96%
    23:00 +10°C° 0 mm 1 mps 753 mmHg 96%

    1 July, Monday

    Time Temperature Precipitation Wind Pressure Humidity
    00:00 +9°C° 0 mm 1 mps 752 mmHg 96%
    01:00 +9°C° 0 mm 1 mps 752 mmHg 96%
    02:00 +9°C° 0 mm 1 mps 752 mmHg 97%
    03:00 +8°C° 0 mm 0 mps 752 mmHg 96%
    04:00 +9°C° 0 mm 0 mps 752 mmHg 95%
    05:00 +9°C° 0 mm 0 mps 752 mmHg 95%
    06:00 +12°C° 0 mm 1 mps 752 mmHg 87%
    07:00 +14°C° 0 mm 1 mps 752 mmHg 80%
    08:00 +16°C° 0 mm 1 mps 752 mmHg 72%
    09:00 +16°C° 0 mm 1 mps 752 mmHg 70%
    10:00 +17°C° 0 mm 2 mps 752 mmHg 69%
    11:00 +17°C° 0 mm 3 mps 752 mmHg 67%
    12:00 +17°C° 0 mm 3 mps 752 mmHg 70%
    13:00 +16°C° 0 mm 3 mps 751 mmHg 73%
    14:00 +15°C° 0 mm 4 mps 751 mmHg 76%
    15:00 +14°C° 0 mm 3 mps 751 mmHg 80%
    16:00 +13°C° 0 mm 3 mps 751 mmHg 85%
    17:00 +12°C° 0 mm 3 mps 751 mmHg 89%
    18:00 +12°C° 0 mm 3 mps 751 mmHg 91%
    19:00 +11°C° 0 mm 4 mps 750 mmHg 93%
    20:00 +11°C° 0 mm 4 mps 750 mmHg 95%
    21:00 +11°C° 0 mm 4 mps 750 mmHg 95%
    22:00 +11°C° 0 mm 4 mps 750 mmHg 95%
    23:00 +11°C° 0 mm 4 mps 750 mmHg 95%
    Show more